Location: NCO
(38.4404°N, 77.1340°W)
Time: 12:31:20
(UTC-04:00)

Tiangong 1 - Visible Passes

Search period start: 20 July 2017 00:00
Search period end: 30 July 2017 00:00
Orbit: 316 x 343 km, 42.8° (Epoch: 19 July)

Date Brightness Start Highest point End Pass type
(mag) Time Alt. Az. Time Alt. Az. Time Alt. Az.
25 Jul 2.9 05:10:12 10° SSW 05:12:12 18° SE 05:14:14 10° E visible
26 Jul 1.3 05:27:09 10° SW 05:29:47 46° SSE 05:32:28 10° ENE visible
27 Jul 3.2 04:12:54 15° SE 04:12:54 15° SE 04:14:04 10° ESE visible
28 Jul 1.3 04:29:36 41° SSE 04:29:36 41° SSE 04:32:14 10° E visible
29 Jul 0.7 04:46:10 38° WSW 04:47:03 79° NNW 04:49:48 10° ENE visible
